This is the latest recevied weather packets stored in our database for station/object IW3HBX-13. If no packets are shown the sender has not sent any weather packets the latest 10 day(s).
| Time | Temp. | Humidity | Pressure | Rain* | Wind** | Luminosity | Snow |
|---|---|---|---|---|---|---|---|
| 1777502167 | 13.33° C | 73% | 1021.9 hPa | 0 mm | - | 0 W/m² | - |
| 1777501807 | 13.33° C | 73% | 1021.9 hPa | 0 mm | - | 0 W/m² | - |
| 1777501450 | 13.33° C | 73% | 1021.7 hPa | 0 mm | - | 0 W/m² | - |
| 1777501087 | 13.33° C | 75% | 1021.7 hPa | 0 mm | - | 0 W/m² | - |
| 1777500727 | 13.33° C | 75% | 1021.6 hPa | 0 mm | - | 0 W/m² | - |
| 1777500368 | 13.33° C | 75% | 1021.5 hPa | 0 mm | - | 0 W/m² | - |
| 1777499647 | 13.33° C | 78% | 1021.4 hPa | 0 mm | - | 0 W/m² | - |
| 1777499289 | 13.33° C | 79% | 1021.2 hPa | 0 mm | - | 0 W/m² | - |
| 1777498927 | 13.33° C | 79% | 1021.3 hPa | 0 mm | - | 0 W/m² | - |
| 1777498568 | 13.33° C | 81% | 1021.2 hPa | 0 mm | - | 0 W/m² | - |
| 1777498207 | 13.89° C | 79% | 1021.4 hPa | 0.51 mm | - | 0 W/m² | - |
| 1777497847 | 13.33° C | 78% | 1021.3 hPa | 0.51 mm | - | 0 W/m² | - |
| 1777497487 | 13.33° C | 79% | 1021.1 hPa | 0.51 mm | - | 0 W/m² | - |
| 1777497129 | 13.33° C | 78% | 1021 hPa | 0.51 mm | - | 0 W/m² | - |
| 1777496768 | 13.89° C | 78% | 1021 hPa | 0.51 mm | - | 0 W/m² | - |
| 1777496047 | 13.89° C | 79% | 1020.9 hPa | 0.51 mm | - | 0 W/m² | - |
| 1777495688 | 13.33° C | 79% | 1020.8 hPa | 0.51 mm | - | 0 W/m² | - |
| 1777495329 | 13.33° C | 78% | 1020.8 hPa | 0.51 mm | - | 0 W/m² | - |
| 1777494969 | 13.33° C | 78% | 1020.8 hPa | 0.51 mm | - | 0 W/m² | - |
| 1777494609 | 13.89° C | 79% | 1020.9 hPa | 0 mm | - | 0 W/m² | - |
| 1777494247 | 13.89° C | 78% | 1020.8 hPa | 0 mm | - | 0 W/m² | - |
| 1777493889 | 13.89° C | 76% | 1020.6 hPa | 0 mm | - | 0 W/m² | - |
| 1777493527 | 13.89° C | 76% | 1020.5 hPa | 0 mm | - | 0 W/m² | - |
| 1777493171 | 13.89° C | 73% | 1020.3 hPa | 0 mm | - | 0 W/m² | - |
| 1777492449 | 14.44° C | 73% | 1020.1 hPa | 0 mm | - | 0 W/m² | - |
* Rain latest hour (hover to see other rain measurements)
** Current wind speed in m/s (hover to see current wind gust speed)